• In Czech Republic
  • List of Countries
  • For 7 days
  • Water Temperature
  • Satellite Maps
  • Weather Map
  • Weather Widgets
  • user-avatar
    Login

    Hourly Weather Pecs

    Today, 25 February, Sunday

    Time Temperature Precipitation Wind Pressure Humidity
    00:00 -9°C° 0 mm 4 mps 747 mmHg 82%
    01:00 -9°C° 0 mm 4 mps 747 mmHg 87%
    02:00 -9°C° 0.1 mm 4 mps 747 mmHg 86%
    03:00 -9°C° 0.1 mm 4 mps 747 mmHg 85%
    04:00 -9°C° 0.1 mm 4 mps 747 mmHg 84%
    05:00 -10°C° 0 mm 4 mps 747 mmHg 83%
    06:00 -11°C° 0 mm 4 mps 747 mmHg 82%
    07:00 -11°C° 0 mm 4 mps 748 mmHg 82%
    08:00 -11°C° 0 mm 4 mps 748 mmHg 78%
    09:00 -10°C° 0 mm 4 mps 748 mmHg 73%
    10:00 -10°C° 0 mm 5 mps 748 mmHg 69%
    11:00 -10°C° 0 mm 5 mps 748 mmHg 68%
    12:00 -8°C° 0 mm 5 mps 748 mmHg 67%
    13:00 -7°C° 0 mm 5 mps 747 mmHg 66%
    14:00 -8°C° 0 mm 5 mps 747 mmHg 67%
    15:00 -8°C° 0 mm 5 mps 747 mmHg 67%
    16:00 -8°C° 0 mm 5 mps 746 mmHg 68%
    17:00 -9°C° 0 mm 4 mps 746 mmHg 70%
    18:00 -9°C° 0 mm 4 mps 746 mmHg 72%
    19:00 -10°C° 0 mm 4 mps 746 mmHg 74%
    20:00 -11°C° 0 mm 4 mps 746 mmHg 74%
    21:00 -11°C° 0 mm 4 mps 746 mmHg 74%
    22:00 -12°C° 0 mm 5 mps 746 mmHg 73%
    23:00 -12°C° 0 mm 5 mps 746 mmHg 74%

    Tomorrow, 26 February, Monday

    Time Temperature Precipitation Wind Pressure Humidity
    00:00 -13°C° 0 mm 5 mps 745 mmHg 76%
    01:00 -13°C° 0 mm 5 mps 745 mmHg 77%
    02:00 -13°C° 0 mm 5 mps 745 mmHg 77%
    03:00 -13°C° 0 mm 5 mps 744 mmHg 77%
    04:00 -13°C° 0 mm 5 mps 744 mmHg 77%
    05:00 -13°C° 0 mm 5 mps 744 mmHg 78%
    06:00 -13°C° 0 mm 5 mps 744 mmHg 78%
    07:00 -14°C° 0 mm 6 mps 743 mmHg 79%
    08:00 -12°C° 0.2 mm 6 mps 743 mmHg 78%
    09:00 -12°C° 0.2 mm 6 mps 743 mmHg 78%
    10:00 -11°C° 0.2 mm 6 mps 743 mmHg 78%
    11:00 -11°C° 0.2 mm 7 mps 742 mmHg 76%
    12:00 -11°C° 0.2 mm 7 mps 742 mmHg 75%
    13:00 -9°C° 0.2 mm 7 mps 742 mmHg 73%
    14:00 -9°C° 0.1 mm 7 mps 741 mmHg 73%
    15:00 -9°C° 0.1 mm 6 mps 741 mmHg 72%
    16:00 -9°C° 0.1 mm 6 mps 741 mmHg 72%
    17:00 -9°C° 0.2 mm 6 mps 741 mmHg 74%
    18:00 -8°C° 0.2 mm 5 mps 741 mmHg 76%
    19:00 -10°C° 0.2 mm 5 mps 741 mmHg 77%
    20:00 -10°C° 0.2 mm 5 mps 740 mmHg 80%
    21:00 -10°C° 0.2 mm 6 mps 740 mmHg 82%
    22:00 -10°C° 0.2 mm 6 mps 740 mmHg 84%
    23:00 -11°C° 0.4 mm 6 mps 740 mmHg 86%

    Day after tomorrow, 27 February, Tuesday

    Time Temperature Precipitation Wind Pressure Humidity
    00:00 -11°C° 0.4 mm 6 mps 740 mmHg 88%
    01:00 -11°C° 0.4 mm 5 mps 739 mmHg 91%
    02:00 -12°C° 0.5 mm 5 mps 739 mmHg 91%
    03:00 -12°C° 0.5 mm 5 mps 739 mmHg 92%
    04:00 -12°C° 0.5 mm 5 mps 739 mmHg 93%
    05:00 -12°C° 0.4 mm 5 mps 739 mmHg 93%
    06:00 -12°C° 0.4 mm 5 mps 739 mmHg 93%
    07:00 -12°C° 0.4 mm 5 mps 739 mmHg 93%
    08:00 -12°C° 0.4 mm 5 mps 739 mmHg 92%
    09:00 -12°C° 0.4 mm 5 mps 740 mmHg 91%
    10:00 -11°C° 0.4 mm 5 mps 740 mmHg 90%
    11:00 -11°C° 0.2 mm 5 mps 740 mmHg 89%
    12:00 -9°C° 0.2 mm 4 mps 740 mmHg 88%
    13:00 -9°C° 0.2 mm 4 mps 740 mmHg 87%
    14:00 -9°C° 0.2 mm 4 mps 740 mmHg 87%
    15:00 -9°C° 0.2 mm 4 mps 740 mmHg 88%
    16:00 -8°C° 0.2 mm 3 mps 740 mmHg 88%
    17:00 -8°C° 0.1 mm 3 mps 741 mmHg 90%
    18:00 -9°C° 0.1 mm 3 mps 741 mmHg 92%
    19:00 -9°C° 0.1 mm 2 mps 741 mmHg 94%
    20:00 -9°C° 0 mm 2 mps 742 mmHg 94%
    21:00 -10°C° 0 mm 2 mps 742 mmHg 94%
    22:00 -12°C° 0 mm 2 mps 742 mmHg 95%
    23:00 -12°C° 0 mm 2 mps 742 mmHg 95%

    28 February, Wednesday

    Time Temperature Precipitation Wind Pressure Humidity
    00:00 -12°C° 0 mm 2 mps 742 mmHg 95%
    01:00 -12°C° 0 mm 2 mps 743 mmHg 95%
    02:00 -13°C° 0 mm 2 mps 743 mmHg 95%
    03:00 -13°C° 0 mm 2 mps 743 mmHg 95%
    04:00 -13°C° 0 mm 2 mps 742 mmHg 95%
    05:00 -13°C° 0 mm 2 mps 743 mmHg 95%
    06:00 -13°C° 0 mm 2 mps 743 mmHg 95%
    07:00 -12°C° 0 mm 2 mps 744 mmHg 95%
    08:00 -10°C° 0 mm 2 mps 744 mmHg 93%
    09:00 -9°C° 0 mm 2 mps 744 mmHg 90%
    10:00 -7°C° 0 mm 2 mps 745 mmHg 88%
    11:00 -7°C° 0.1 mm 2 mps 745 mmHg 86%
    12:00 -7°C° 0.1 mm 3 mps 745 mmHg 83%
    13:00 -6°C° 0.1 mm 3 mps 745 mmHg 81%
    14:00 -6°C° 0.1 mm 3 mps 745 mmHg 81%
    15:00 -6°C° 0.1 mm 3 mps 745 mmHg 81%
    16:00 -5°C° 0.1 mm 2 mps 745 mmHg 81%
    17:00 -7°C° 0 mm 2 mps 746 mmHg 84%
    18:00 -8°C° 0 mm 2 mps 746 mmHg 87%
    19:00 -8°C° 0 mm 1 mps 747 mmHg 89%
    20:00 -9°C° 0 mm 1 mps 747 mmHg 90%
    21:00 -10°C° 0 mm 1 mps 747 mmHg 90%
    22:00 -11°C° 0 mm 1 mps 748 mmHg 90%
    23:00 -11°C° 0 mm 1 mps 747 mmHg 90%

    1 March, Thursday

    Time Temperature Precipitation Wind Pressure Humidity
    00:00 -12°C° 0 mm 1 mps 747 mmHg 90%
    01:00 -12°C° 0 mm 1 mps 747 mmHg 90%
    02:00 -13°C° 0 mm 1 mps 747 mmHg 90%
    03:00 -13°C° 0 mm 0 mps 747 mmHg 90%
    04:00 -14°C° 0 mm 0 mps 747 mmHg 90%
    05:00 -13°C° 0 mm 0 mps 747 mmHg 90%
    06:00 -13°C° 0 mm 1 mps 747 mmHg 90%
    07:00 -13°C° 0 mm 1 mps 747 mmHg 90%
    08:00 -11°C° 0 mm 1 mps 747 mmHg 90%
    09:00 -10°C° 0 mm 2 mps 747 mmHg 89%
    10:00 -8°C° 0 mm 2 mps 747 mmHg 88%
    11:00 -7°C° 0 mm 2 mps 746 mmHg 87%
    12:00 -7°C° 0 mm 3 mps 746 mmHg 85%
    13:00 -6°C° 0 mm 3 mps 745 mmHg 84%
    14:00 -6°C° 0 mm 3 mps 745 mmHg 85%
    15:00 -7°C° 0 mm 4 mps 744 mmHg 85%
    16:00 -7°C° 0 mm 4 mps 744 mmHg 86%
    17:00 -7°C° 0 mm 4 mps 743 mmHg 88%
    18:00 -7°C° 0 mm 3 mps 743 mmHg 90%
    19:00 -7°C° 0 mm 3 mps 743 mmHg 92%
    20:00 -7°C° 0.1 mm 3 mps 743 mmHg 92%
    21:00 -7°C° 0.1 mm 3 mps 743 mmHg 92%
    22:00 -7°C° 0.1 mm 3 mps 743 mmHg 93%
    23:00 -8°C° 0.1 mm 3 mps 742 mmHg 93%

    2 March, Friday

    Time Temperature Precipitation Wind Pressure Humidity
    00:00 -8°C° 0.1 mm 3 mps 742 mmHg 93%
    01:00 -8°C° 0.1 mm 3 mps 741 mmHg 93%
    02:00 -8°C° 0.2 mm 3 mps 741 mmHg 93%
    03:00 -8°C° 0.2 mm 3 mps 740 mmHg 94%
    04:00 -7°C° 0.2 mm 3 mps 740 mmHg 94%
    05:00 -7°C° 0.2 mm 3 mps 739 mmHg 94%
    06:00 -7°C° 0.2 mm 3 mps 739 mmHg 95%
    07:00 -7°C° 0.2 mm 3 mps 739 mmHg 95%
    08:00 -6°C° 0.1 mm 3 mps 739 mmHg 95%
    09:00 -5°C° 0.1 mm 4 mps 739 mmHg 94%
    10:00 -5°C° 0.1 mm 4 mps 739 mmHg 94%
    11:00 -4°C° 0 mm 4 mps 738 mmHg 95%
    12:00 -2°C° 0 mm 3 mps 738 mmHg 96%
    13:00 -2°C° 0 mm 3 mps 737 mmHg 97%
    14:00 -2°C° 0 mm 3 mps 737 mmHg 96%
    15:00 -2°C° 0 mm 3 mps 737 mmHg 96%
    16:00 -2°C° 0 mm 3 mps 737 mmHg 95%
    17:00 -2°C° 0 mm 3 mps 737 mmHg 96%
    18:00 -2°C° 0 mm 2 mps 737 mmHg 96%
    19:00 -2°C° 0 mm 2 mps 737 mmHg 96%
    20:00 -3°C° 0 mm 2 mps 737 mmHg 96%
    21:00 -3°C° 0 mm 2 mps 737 mmHg 96%
    22:00 -3°C° 0 mm 2 mps 737 mmHg 96%
    23:00 -3°C° 0 mm 2 mps 737 mmHg 97%
    Show more